STARLINK-1050 (44755 NORAD) Tracking and Keplerian Element Data

This shows tracking and keplerian element data for the satellite.

Feedback or suggestion? Click here.




ElementValue
Catalog44755
NameSTARLINK-1050
Epoch Orbit161
Epoch Day93.91667824
Epoch Year2020
RAAN233.4878
Inclination53.028
Eccentricity0.0001525
Argument of Perigee96.5196
Mean Anonmoly70.0778
Mean Motion15.0558299
Decay Rate8.473E-05
L11 44755U 19074AU 20093.91667824 .00008473 00000-0 59992-3 0 9992
L22 44755 53.0280 233.4878 0001525 96.5196 70.0778 15.05582990 1610

Live tracking and technical data element details for STARLINK-1050 (NORAD 44755). STARLINK-1050 can be tracked NOW for your location showing map with azimuth and elevation plus other details from your city location.

Track the satellite on the map from your city or location and see movement details for azimuth, elevation, latitude, longitude, range, height, and movement on the map or in text.







IsCatalogInMostPopularTable: catalog: 44755, numindb: 47
Update: records affected: 1



GetName: 44755 STARLINK-1050

Hit Count: updated at: Fri, 03 Apr 2020 23:32:07 GMT